Delavan, Wisconsin, United States (53115)
Lat: 42.63N, Lon: 88.64W
Wx Zone: WIZ070
Local Info
Past Weather Observations for Today

NOTE: This archive is for the closest National Weather Service station to Delavan. Information may differ from the station used for current weather conditions.

Click here for Long-term Archive

Time Weather Temperature Dewpoint Humidity Pressure Winds Precip Visibility
10:35
Overcast
68°F / 20°C 64°F / 18°C 88% 30.06 in
(1018 mb)
ENE 4.6 mph
(ENE 7 kph)
- 10SM
10:15
Overcast
68°F / 20°C 64°F / 18°C 88% 30.06 in
(1018 mb)
ENE 4.6 mph
(ENE 7 kph)
- 10SM
09:55
Overcast
68°F / 20°C 64°F / 18°C 88% 30.04 in
(1017 mb)
NE 5.8 mph
(NE 9 kph)
- 10SM
09:35
Overcast
66°F / 19°C 64°F / 18°C 94% 30.06 in
(1018 mb)
NE 4.6 mph
(NE 7 kph)
- 10SM
09:15
Overcast
66°F / 19°C 64°F / 18°C 94% 30.06 in
(1018 mb)
NE 4.6 mph
(NE 7 kph)
- 10SM
08:55
Mostly Cloudy
68°F / 20°C 64°F / 18°C 88% 30.06 in
(1018 mb)
NE 5.8 mph
(NE 9 kph)
- 10SM
08:35
Overcast
66°F / 19°C 64°F / 18°C 94% 30.06 in
(1018 mb)
NE 5.8 mph
(NE 9 kph)
- 10SM
08:15
Overcast
66°F / 19°C 64°F / 18°C 94% 30.06 in
(1018 mb)
NNE 5.8 mph
(NNE 9 kph)
- 10SM
07:55
Overcast
66°F / 19°C 64°F / 18°C 94% 30.09 in
(1019 mb)
NE 3.5 mph
(NE 6 kph)
- 10SM
07:35
Overcast
64°F / 18°C 63°F / 17°C 94% 30.09 in
(1019 mb)
ENE 4.6 mph
(ENE 7 kph)
- 10SM
07:15
Overcast
63°F / 17°C 63°F / 17°C 100% 30.09 in
(1019 mb)
ENE 3.5 mph
(ENE 6 kph)
- 10SM
06:55
Overcast
63°F / 17°C 63°F / 17°C 100% 30.09 in
(1019 mb)
NE 3.5 mph
(NE 6 kph)
- 10SM
06:35
Overcast
63°F / 17°C 63°F / 17°C 100% 30.09 in
(1019 mb)
ENE 5.8 mph
(ENE 9 kph)
- 10SM
06:15
Overcast
Drizzle
63°F / 17°C 61°F / 16°C 94% 30.09 in
(1019 mb)
NE 4.6 mph
(NE 7 kph)
- 10SM
05:55
Overcast
Drizzle
63°F / 17°C 61°F / 16°C 94% 30.09 in
(1019 mb)
ENE 5.8 mph
(ENE 9 kph)
- 10SM
05:35
Mostly Cloudy
Light Rain
63°F / 17°C 61°F / 16°C 94% 30.09 in
(1019 mb)
E 4.6 mph
(E 7 kph)
- 10SM
05:15
Overcast
64°F / 18°C 63°F / 17°C 94% 30.09 in
(1019 mb)
ENE 3.5 mph
(ENE 6 kph)
- 10SM
04:55
Overcast
64°F / 18°C 63°F / 17°C 94% 30.09 in
(1019 mb)
E 4.6 mph
(E 7 kph)
- 10SM
04:35
Overcast
Light Rain
63°F / 17°C 63°F / 17°C 100% 30.09 in
(1019 mb)
ENE 4.6 mph
(ENE 7 kph)
- 10SM
04:15
Overcast
Light Rain
63°F / 17°C 63°F / 17°C 100% 30.09 in
(1019 mb)
E 4.6 mph
(E 7 kph)
- 7SM
03:55
Overcast
63°F / 17°C 61°F / 16°C 94% 30.09 in
(1019 mb)
NE 3.5 mph
(NE 6 kph)
- 10SM
03:35
Overcast
63°F / 17°C 61°F / 16°C 94% 30.09 in
(1019 mb)
NE 4.6 mph
(NE 7 kph)
- 10SM
03:15
Overcast
63°F / 17°C 61°F / 16°C 94% 30.09 in
(1019 mb)
N 5.8 mph
(N 9 kph)
- 10SM
02:55
Overcast
Drizzle
63°F / 17°C 61°F / 16°C 94% 30.09 in
(1019 mb)
N 3.5 mph
(N 6 kph)
0.06 in
(1.52 mm)
10SM
02:35
Overcast
Rain
63°F / 17°C 61°F / 16°C 94% 30.12 in
(1020 mb)
NE 3.5 mph
(NE 6 kph)
0.06 in
(1.52 mm)
10SM
02:15
Mostly Cloudy
Heavy Rain
63°F / 17°C 61°F / 16°C 94% 30.09 in
(1019 mb)
NNW 4.6 mph
(NNW 7 kph)
0.06 in
(1.52 mm)
4SM
01:55
Overcast
64°F / 18°C 61°F / 16°C 88% 30.09 in
(1019 mb)
Calm - 10SM
01:35
Overcast
Light Rain
64°F / 18°C 59°F / 15°C 83% 30.09 in
(1019 mb)
E 5.8 mph
(E 9 kph)
- 10SM
01:15
Overcast
64°F / 18°C 59°F / 15°C 83% 30.12 in
(1020 mb)
ENE 3.5 mph
(ENE 6 kph)
- 10SM
00:55
Overcast
64°F / 18°C 59°F / 15°C 83% 30.12 in
(1020 mb)
ENE 4.6 mph
(ENE 7 kph)
- 10SM
00:35
Mostly Cloudy
64°F / 18°C 59°F / 15°C 83% 30.12 in
(1020 mb)
ESE 5.8 mph
(ESE 9 kph)
- 10SM
00:15
Mostly Cloudy
64°F / 18°C 59°F / 15°C 83% 30.12 in
(1020 mb)
E 4.6 mph
(E 7 kph)
- 10SM
Time Weather Temperature Dewpoint Humidity Pressure Winds Precip Visibility


Weather for websites

WeatherForYou.com, LLC is not responsible for any damages or problems caused by this service. Current weather conditions are obtained from the closest station including government and personal stations which may have varying degrees of accuracy. Weather forecasts are derived from the NOAA NDFD. Like all things, this site belongs to Jesus Christ... He just trusts us to maintain it. If you have any questions or comments email webmaster@weatherforyou.com

Copyright © 2016, WeatherForYou.com LLC. All rights reserved.